Comet 20D/Westphal
(Preview)
Comets 2014
0
648
20D/Westphal was a periodic comet with an orbital period of 61 years. It fits the classical definition of a Halley-type comet with (20 years < period < 200 years). It was originally discovered by the German astronomer J. G. Westphal (Göttingen, Germany) on July 24, 1852. Read more
Comet 2013 L1 (CHRISTENSEN)
(Preview)
Comets 2013
2
759
Orbital elements:
P/2006 R2 = 2013 L1 (Christensen)
Epoch 2014 Dec. 9.0 TT = JDT 2457000.5
T 2014 Dec. 28.44531 TT MPC
q 3.0540581 (2000.0) P Q
n 0.11536355 Peri. 189.08497 +0.84520986 +0.50178877
a 4.1791727 Node 139.05815 -0.47101642 +0.86201770
e 0.2692195 Incl. 16.30054 -0.25251499...
Chiles-Whitted UFO
(Preview)
UFO 2014
0
2813
The Chiles-Whitted UFO encounter occurred on July 24, 1948 in the skies near Montgomery, Alabama Read more
Fireball of July 24, 1949
(Preview)
Meteors 2014
1
1468
In Socorro, the New Mexico School of Mines (now New Mexico Tech) tested a sample from the purported impact site of a green fireball that had fallen on July 24, 1949 and found that it was rich in copper, an element that when burned, turns bright green. Source Dr. Lincolm LaPaz found this highly signific...
Barbotan meteorite
(Preview)
Meteorites
2
2062
The Barbotan (H5 chondrite) meteorite fell in Aquitaine, France, on the 24th July, 1790. A total mass of 6.4 kg was recovered. 43° 57'N, 0° 3'W
NGC 3293
(Preview)
Stars/galaxy News
0
278
Lives and Deaths of Sibling Stars In this striking new image from ESO's La Silla Observatory in Chile young stars huddle together against a backdrop of clouds of glowing gas and lanes of dust. The star cluster, known as NGC 3293, would have been just a cloud of gas and dust itself about ten million year...
Sun 23.07.14
(Preview)
Solar 2014
0
477
Sunspots 12121 and 12122 (bottom) captured with a 100mm refractor and Vesta pro webcam + solar filter (Through Hazy clouds) Sun 23.07.14: Sunspot 12119 captured with a 100mm refractor and Vesta pro webcam + solar filter (Through Hazy clouds)
Sun 23.07.13
(Preview)
Solar 2014
0
614
A major solar eruptive event in July 2012 A powerful coronal mass ejection (CME) tore through Earth orbit on July 23, 2012. Fortunately Earth wasn't there. Instead, the storm cloud hit the STEREO-A spacecraft. Read more
Panspermia
(Preview)
Meteorite News
5
1426
Title: Dynamics of escaping Earth ejecta and their collision probability with different Solar System bodies Authors: M. Reyes-Ruiz, C.E. Chavez, M.S. Hernandez, R. Vazquez, H. Aceves, P.G. Nuńez It has been suggested that the ejection to interplanetary space of terrestrial crustal material,...
NGC 4337
(Preview)
Galaxies
2
867
NGC 4337 (also ESO 131-SC2, Collinder 254 and OCL 878) is a magnitude +8.9 open star cluster located 1,595 light-years away in the constellation Crux. The cluster was discovered by British astronomer John Herschel using a 47.5 cm (18.7 inch) f/13 speculum reflector at the Cape of Good Hope on the 1s...
V838 Monocerotis
(
1 2 3
)
(Preview)
Stars/galaxy News
20
10438
Spitzer Observations of V838 Monocerotis: Detection of a Rare Infrared Light Echo
Authors: D.P.K. Banerjee, K.Y.L. Su, K.A. Misselt, N.M. Ashok
Reaserchers present Spitzer observations of the unusual variable [url=http://www.geocities.com/douglasrana/v838.htm]V...
V854 Centauri
(Preview)
Stars
1
604
V854 Cen has the rather dubious distinction of having been discovered on 3 separate occasions while its true character remained unrecognised for almost 2 decades. This is despite it being third brightest of the RCB stars with a maximum visual brightness near magnitude 7.5. The initial discovery w...
1SWASP J162842.31+101416.7
(Preview)
Stars
0
240
Title: WASP 1628+10 - an EL CVn-type binary with a very-low-mass stripped-red-giant star and multi-periodic pulsations Author: P. F. L. Maxted (1), A. M. Serenelli (2), T. R. Marsh (3), S. Catalán (3), D. P. Mahtani (1), V. S. Dhillon (4) ((1) Keele, UK, (2) CSIC-IEEC, Spain, (3) Warwick, UK, (4) She...
Chandra X-ray Observatory
(
1 2
)
(Preview)
Videos
12
9301
High Energy Vision: The Chandra X-ray Observatory Click to Play | View Details
Lancé meteorite
(Preview)
Meteorites
2
1194
The Lancé (CO3.5 chondrite) meteorite fell in Centre, France, on the 23rd July, 1872. A total mass of 51.7 kg was recovered. 47° 42'N, 1° 4'E
«First < 1
560 561 562 563 564
2461 > Last» | Page
